User: anonymous   Login
Location: Arthez
(43.0833°N, 0.2500°W)
Time: 21:29:42
(UTC+00:00)
Language:

NOSS 3-1 (A) - Orbit

View from above orbital plane
View from above orbital plane
View from above satellite
View from above satellite

Ground track
Ground track

The orbit data is extracted from the following two-line orbital elements,

1 26905U 01040A   24104.00066459 0.00000100  00000-0  64763-4 0    02
2 26905  63.3832 134.7935 0586104   7.6254 352.3746 13.41064122    03
Epoch (UTC): 13 April 2024 00:00:57
Eccentricity: 0.0586104
inclination: 63.3832°
perigee height: 667 km
apogee height: 1544 km
right ascension of ascending node: 134.7935°
argument of perigee: 7.6254°
revolutions per day: 13.41064122
mean anomaly at epoch: 352.3746°
orbit number at epoch: 0

The dashed part of the orbit path shows where the satellite is in the earth's shadow,  

DLR